This demonstration page uses our WeatherBlox Daily Observations layout. Learn more.

Left ArrowRight Arrow

31.31129, -92.44514

Hourly Observations for October 18, 2015

Temp ( °F °C ) Dew Point ( °F °C ) Humidity (%) Winds ( mph kmh ) Pressure ( in mb ) Visibility ( mi km ) Precip ( " mm )
12:53 am 00:53 Clear 56 13.3 31 -0.6 39 39 Calm 30.31 1026 10 16 0.00 0.00
1:53 am 01:53 Clear 56 13.3 32 0 40 40 NNE 3 6 30.30 1026 10 16 0.00 0.00
2:53 am 02:53 Clear 52 11.1 36 2.2 55 55 N 3 6 30.30 1026 10 16 0.00 0.00
3:53 am 03:53 Clear 52 11.1 33 0.6 49 49 Calm 30.30 1026 10 16 0.00 0.00
4:53 am 04:53 Clear 51 10.6 34 1.1 52 52 NNE 5 7 30.30 1026 10 16 0.00 0.00
5:53 am 05:53 Clear 53 11.7 33 0.6 47 47 NE 6 9 30.33 1027 10 16 0.00 0.00
6:53 am 06:53 Clear 52 11.1 33 0.6 49 49 ENE 5 7 30.35 1028 10 16 0.00 0.00
7:53 am 07:53 Sunny 52 11.1 35 1.7 53 53 ENE 3 6 30.37 1029 10 16 0.00 0.00
8:53 am 08:53 Sunny 56 13.3 34 1.1 44 44 ENE 7 11 30.40 1029 10 16 0.00 0.00
9:53 am 09:53 Sunny 62 16.7 34 1.1 35 35 E 12 19 30.41 1030 10 16 0.00 0.00
10:53 am 10:53 Sunny 67 19.4 33 0.6 28 28 NE 10 17 30.41 1030 10 16 0.00 0.00
11:53 am 11:53 Sunny 69 20.6 29 -1.7 22 22 ENE 8 13 30.39 1029 10 16 0.00 0.00
12:53 pm 12:53 Sunny 73 22.8 29 -1.7 19 19 NE 9 15 30.36 1028 10 16 0.00 0.00
1:53 pm 13:53 Sunny 76 24.4 29 -1.7 18 18 ENE 8 13 30.32 1027 10 16 0.00 0.00
2:53 pm 14:53 Sunny 79 26.1 28 -2.2 15 15 VRB 7 11 30.29 1026 10 16 0.00 0.00
3:53 pm 15:53 Sunny 79 26.1 28 -2.2 15 15 VRB 6 9 30.28 1025 10 16 0.00 0.00
4:53 pm 16:53 Sunny 78 25.6 28 -2.2 16 16 NE 8 13 30.28 1025 10 16 0.00 0.00
5:53 pm 17:53 Sunny 74 23.3 29 -1.7 19 19 NE 9 15 30.28 1025 10 16 0.00 0.00
6:53 pm 18:53 Clear 68 20 30 -1.1 24 24 NE 5 7 30.29 1026 10 16 0.00 0.00
7:53 pm 19:53 Clear 60 15.6 37 2.8 42 42 N 5 7 30.30 1026 10 16 0.00 0.00
8:53 pm 20:53 Clear 61 16.1 34 1.1 36 36 NNE 5 7 30.31 1027 10 16 0.00 0.00
9:53 pm 21:53 Clear 55 12.8 34 1.1 45 45 Calm 30.32 1027 10 16 0.00 0.00
10:53 pm 22:53 Clear 52 11.1 40 4.4 64 64 N 3 6 30.32 1027 10 16 0.00 0.00
11:53 pm 23:53 Clear 49 9.4 40 4.4 71 71 NNW 3 6 30.32 1027 10 16 0.00 0.00

Powered by AerisWeather